Time,TemperatureF,DewpointF,PressureIn,WindDirection,WindDirectionDegrees,WindSpeedMPH,WindSpeedGustMPH,Humidity,HourlyPrecipIn,Conditions,Clouds,dailyrainin,SolarRadiationWatts/m^2,SoftwareType,DateUTC
2013-05-23 00:00:00,70.1,69.5,29.79,South,173,1.0,1.0,98,0.00,,,0.00,0,Wunderground v.1.15,2013-05-23 04:00:00,
2013-05-23 00:10:00,70.0,69.4,29.79,SSE,153,1.0,1.0,98,0.00,,,0.00,0,Wunderground v.1.15,2013-05-23 04:10:00,
2013-05-23 00:20:00,70.0,69.4,29.79,WSW,257,2.0,2.0,98,0.00,,,0.00,0,Wunderground v.1.15,2013-05-23 04:20:00,
2013-05-23 00:30:00,70.0,69.4,29.79,SW,235,1.0,1.0,98,0.00,,,0.00,0,Wunderground v.1.15,2013-05-23 04:30:00,
2013-05-23 00:40:00,69.8,68.9,29.79,SE,138,1.0,2.0,97,0.00,,,0.00,0,Wunderground v.1.15,2013-05-23 04:40:00,
2013-05-23 00:50:00,69.7,68.8,29.79,SE,145,1.0,2.0,97,0.00,,,0.00,0,Wunderground v.1.15,2013-05-23 04:50:00,
2013-05-23 01:00:00,69.5,68.9,29.79,North,355,1.0,1.0,98,0.00,,,0.00,0,Wunderground v.1.15,2013-05-23 05:00:00,
2013-05-23 01:10:00,69.5,68.6,29.80,South,191,1.0,1.0,97,0.00,,,0.00,0,Wunderground v.1.15,2013-05-23 05:10:00,
2013-05-23 01:20:00,69.3,68.4,29.80,SSE,153,0.0,0.0,97,0.00,,,0.00,0,Wunderground v.1.15,2013-05-23 05:20:00,
2013-05-23 01:30:00,69.0,68.1,29.80,SSE,153,0.0,0.0,97,0.00,,,0.00,0,Wunderground v.1.15,2013-05-23 05:30:00,
2013-05-23 01:40:00,68.6,67.7,29.80,SSE,153,0.0,0.0,97,0.00,,,0.00,0,Wunderground v.1.15,2013-05-23 05:40:00,
2013-05-23 01:50:00,68.3,67.4,29.79,WSW,250,0.0,0.0,97,0.00,,,0.00,0,Wunderground v.1.15,2013-05-23 05:50:00,
2013-05-23 02:00:00,68.1,67.2,29.79,WSW,252,0.0,1.0,97,0.00,,,0.00,0,Wunderground v.1.15,2013-05-23 06:00:00,
2013-05-23 02:10:00,67.9,67.0,29.78,East,88,1.0,1.0,97,0.00,,,0.00,0,Wunderground v.1.15,2013-05-23 06:10:00,
2013-05-23 02:20:00,67.8,66.9,29.78,SSE,148,0.0,0.0,97,0.00,,,0.00,0,Wunderground v.1.15,2013-05-23 06:20:00,
2013-05-23 02:30:00,67.7,66.8,29.78,East,96,0.0,0.0,97,0.00,,,0.00,0,Wunderground v.1.15,2013-05-23 06:30:00,
2013-05-23 02:40:00,67.6,66.7,29.78,SE,128,0.0,0.0,97,0.00,,,0.00,0,Wunderground v.1.15,2013-05-23 06:40:00,
2013-05-23 02:50:00,67.5,66.6,29.77,South,177,1.0,1.0,97,0.00,,,0.00,0,Wunderground v.1.15,2013-05-23 06:50:00,
2013-05-23 03:00:00,67.4,66.5,29.77,South,171,1.0,1.0,97,0.00,,,0.00,0,Wunderground v.1.15,2013-05-23 07:00:00,
2013-05-23 03:10:00,67.4,66.5,29.78,East,87,0.0,0.0,97,0.00,,,0.00,0,Wunderground v.1.15,2013-05-23 07:10:00,
2013-05-23 03:20:00,67.2,66.6,29.78,SE,142,0.0,0.0,98,0.00,,,0.00,0,Wunderground v.1.15,2013-05-23 07:20:00,
2013-05-23 03:30:00,67.0,66.4,29.77,SE,138,0.0,0.0,98,0.00,,,0.00,0,Wunderground v.1.15,2013-05-23 07:30:00,
2013-05-23 03:40:00,66.9,66.0,29.77,ESE,109,1.0,1.0,97,0.00,,,0.00,0,Wunderground v.1.15,2013-05-23 07:40:00,
2013-05-23 03:50:00,66.7,65.8,29.78,NE,42,2.0,2.0,97,0.00,,,0.00,0,Wunderground v.1.15,2013-05-23 07:50:00,
2013-05-23 04:00:00,66.5,65.6,29.77,SSE,153,1.0,1.0,97,0.00,,,0.00,0,Wunderground v.1.15,2013-05-23 08:00:00,
2013-05-23 04:10:00,66.2,65.3,29.78,East,89,0.0,1.0,97,0.00,,,0.00,0,Wunderground v.1.15,2013-05-23 08:10:00,
2013-05-23 04:20:00,65.9,65.0,29.79,SSE,156,1.0,1.0,97,0.00,,,0.00,0,Wunderground v.1.15,2013-05-23 08:20:00,
2013-05-23 04:30:00,65.7,64.5,29.78,SSE,151,1.0,1.0,96,0.00,,,0.00,0,Wunderground v.1.15,2013-05-23 08:30:00,
2013-05-23 04:40:00,65.4,64.2,29.79,South,172,1.0,1.0,96,0.00,,,0.00,0,Wunderground v.1.15,2013-05-23 08:40:00,
2013-05-23 04:50:00,65.1,63.9,29.79,SE,140,1.0,2.0,96,0.00,,,0.00,0,Wunderground v.1.15,2013-05-23 08:50:00,
2013-05-23 05:00:00,64.9,63.7,29.79,SSE,167,1.0,1.0,96,0.00,,,0.00,0,Wunderground v.1.15,2013-05-23 09:00:00,
2013-05-23 05:10:00,64.6,63.1,29.79,East,86,1.0,1.0,95,0.00,,,0.00,0,Wunderground v.1.15,2013-05-23 09:10:00,
2013-05-23 05:20:00,64.5,63.0,29.79,SSE,148,1.0,1.0,95,0.00,,,0.00,0,Wunderground v.1.15,2013-05-23 09:20:00,
2013-05-23 05:30:00,64.4,62.9,29.79,ESE,121,1.0,1.0,95,0.00,,,0.00,0,Wunderground v.1.15,2013-05-23 09:30:00,
2013-05-23 05:40:00,64.3,63.1,29.80,SE,138,1.0,2.0,96,0.00,,,0.00,11,Wunderground v.1.15,2013-05-23 09:40:00,
2013-05-23 05:50:00,64.3,63.1,29.80,North,350,1.0,1.0,96,0.00,,,0.00,11,Wunderground v.1.15,2013-05-23 09:50:00,
2013-05-23 06:01:00,64.3,63.1,29.81,South,176,1.0,1.0,96,0.00,,,0.00,28,Wunderground v.1.15,2013-05-23 10:01:00,
2013-05-23 06:10:00,64.3,63.1,29.81,SSE,164,1.0,1.0,96,0.00,,,0.00,35,Wunderground v.1.15,2013-05-23 10:10:00,
2013-05-23 06:20:00,64.4,63.2,29.81,West,272,1.0,1.0,96,0.00,,,0.00,33,Wunderground v.1.15,2013-05-23 10:20:00,
2013-05-23 06:30:00,64.5,63.6,29.82,West,263,1.0,2.0,97,0.00,,,0.00,54,Wunderground v.1.15,2013-05-23 10:30:00,
2013-05-23 06:40:00,64.8,63.3,29.81,East,93,1.0,1.0,95,0.00,,,0.00,62,Wunderground v.1.15,2013-05-23 10:40:00,
2013-05-23 06:50:00,65.3,63.8,29.82,SW,235,1.0,1.0,95,0.00,,,0.00,70,Wunderground v.1.15,2013-05-23 10:50:00,
2013-05-23 07:00:00,65.6,64.1,29.82,WNW,293,1.0,1.0,95,0.00,,,0.00,91,Wunderground v.1.15,2013-05-23 11:00:00,
2013-05-23 07:10:00,65.9,64.7,29.83,West,264,1.0,1.0,96,0.00,,,0.00,77,Wunderground v.1.15,2013-05-23 11:10:00,
2013-05-23 07:20:00,66.0,64.5,29.82,South,173,1.0,1.0,95,0.00,,,0.00,54,Wunderground v.1.15,2013-05-23 11:20:00,
2013-05-23 07:30:00,66.0,64.5,29.82,North,5,1.0,1.0,95,0.00,,,0.00,44,Wunderground v.1.15,2013-05-23 11:30:00,
2013-05-23 07:40:00,66.1,64.9,29.82,ESE,119,1.0,1.0,96,0.00,,,0.00,39,Wunderground v.1.15,2013-05-23 11:40:00,
2013-05-23 07:50:00,66.2,65.0,29.83,ENE,63,0.0,0.0,96,0.00,,,0.00,56,Wunderground v.1.15,2013-05-23 11:50:00,
2013-05-23 08:00:00,66.5,65.3,29.83,SW,219,0.0,1.0,96,0.00,,,0.00,179,Wunderground v.1.15,2013-05-23 12:00:00,
2013-05-23 08:10:00,67.2,66.0,29.83,NE,42,1.0,1.0,96,0.00,,,0.00,237,Wunderground v.1.15,2013-05-23 12:10:00,
2013-05-23 08:20:00,68.2,66.7,29.83,East,93,1.0,1.0,95,0.00,,,0.00,146,Wunderground v.1.15,2013-05-23 12:20:00,
2013-05-23 08:30:00,68.8,67.0,29.83,ESE,102,1.0,1.0,94,0.00,,,0.00,271,Wunderground v.1.15,2013-05-23 12:30:00,
2013-05-23 08:40:00,69.7,67.0,29.83,ENE,63,1.0,1.0,91,0.00,,,0.00,573,Wunderground v.1.15,2013-05-23 12:40:00,
2013-05-23 08:50:00,70.7,67.0,29.83,SSW,193,1.0,2.0,88,0.00,,,0.00,283,Wunderground v.1.15,2013-05-23 12:50:00,
2013-05-23 09:01:00,71.5,67.8,29.82,SE,143,2.0,2.0,88,0.00,,,0.00,531,Wunderground v.1.15,2013-05-23 13:01:00,
2013-05-23 09:10:00,71.6,67.9,29.83,SE,131,1.0,1.0,88,0.00,,,0.00,109,Wunderground v.1.15,2013-05-23 13:10:00,
2013-05-23 09:20:00,71.3,67.9,29.82,ESE,102,0.0,4.0,89,0.00,,,0.00,167,Wunderground v.1.15,2013-05-23 13:20:00,
2013-05-23 09:30:00,71.0,67.6,29.82,NNE,30,1.0,2.0,89,0.00,,,0.00,171,Wunderground v.1.15,2013-05-23 13:30:00,
2013-05-23 09:40:00,71.0,67.6,29.81,South,188,1.0,1.0,89,0.00,,,0.00,151,Wunderground v.1.15,2013-05-23 13:40:00,
2013-05-23 09:50:00,70.8,67.4,29.82,NW,306,1.0,1.0,89,0.00,,,0.00,102,Wunderground v.1.15,2013-05-23 13:50:00,
2013-05-23 10:00:00,70.7,67.3,29.82,East,88,0.0,0.0,89,0.00,,,0.00,69,Wunderground v.1.15,2013-05-23 14:00:00,
2013-05-23 10:10:00,70.5,67.4,29.81,NE,54,1.0,2.0,90,0.00,,,0.00,83,Wunderground v.1.15,2013-05-23 14:10:00,
2013-05-23 10:20:00,70.4,67.3,29.81,SW,234,1.0,2.0,90,0.00,,,0.00,104,Wunderground v.1.15,2013-05-23 14:20:00,
2013-05-23 10:30:00,70.3,67.5,29.82,ESE,107,0.0,0.0,91,0.00,,,0.00,54,Wunderground v.1.15,2013-05-23 14:30:00,
2013-05-23 10:40:00,70.2,67.4,29.82,SE,138,0.0,0.0,91,0.00,,,0.00,72,Wunderground v.1.15,2013-05-23 14:40:00,
2013-05-23 10:50:00,70.0,67.6,29.82,SE,130,0.0,1.0,92,0.00,,,0.00,98,Wunderground v.1.15,2013-05-23 14:50:00,
2013-05-23 11:00:00,69.9,67.5,29.82,NE,43,0.0,0.0,92,0.00,,,0.00,74,Wunderground v.1.15,2013-05-23 15:00:00,
2013-05-23 11:10:00,69.9,67.5,29.82,East,98,0.0,0.0,92,0.00,,,0.00,60,Wunderground v.1.15,2013-05-23 15:10:00,
2013-05-23 11:20:00,69.9,67.5,29.83,NNE,33,0.0,0.0,92,0.00,,,0.00,53,Wunderground v.1.15,2013-05-23 15:20:00,
2013-05-23 11:30:00,69.8,67.7,29.82,SW,222,0.0,0.0,93,0.00,,,0.00,53,Wunderground v.1.15,2013-05-23 15:30:00,
2013-05-23 11:40:00,69.7,67.6,29.82,South,185,1.0,1.0,93,0.00,,,0.00,104,Wunderground v.1.15,2013-05-23 15:40:00,
2013-05-23 11:50:00,69.6,67.8,29.83,WSW,240,0.0,0.0,94,0.00,,,0.00,37,Wunderground v.1.15,2013-05-23 15:50:00,
2013-05-23 12:00:00,69.5,67.7,29.83,SW,234,1.0,1.0,94,0.00,,,0.00,51,Wunderground v.1.15,2013-05-23 16:00:00,
2013-05-23 12:10:00,69.5,67.7,29.83,SE,142,1.0,1.0,94,0.00,,,0.00,63,Wunderground v.1.15,2013-05-23 16:10:00,
2013-05-23 12:20:00,69.5,67.7,29.83,SE,132,0.0,0.0,94,0.00,,,0.00,83,Wunderground v.1.15,2013-05-23 16:20:00,
2013-05-23 12:30:00,69.7,68.2,29.82,NE,44,0.0,0.0,95,0.00,,,0.00,130,Wunderground v.1.15,2013-05-23 16:30:00,
2013-05-23 12:40:00,70.0,68.5,29.81,SE,143,0.0,0.0,95,0.00,,,0.00,113,Wunderground v.1.15,2013-05-23 16:40:00,
2013-05-23 12:50:00,70.2,68.4,29.82,ENE,77,1.0,1.0,94,0.00,,,0.00,100,Wunderground v.1.15,2013-05-23 16:50:00,
2013-05-23 13:00:00,70.4,68.3,29.81,SE,136,1.0,1.0,93,0.00,,,0.00,179,Wunderground v.1.15,2013-05-23 17:00:00,
2013-05-23 13:10:00,70.9,68.8,29.81,SSE,149,0.0,1.0,93,0.00,,,0.00,172,Wunderground v.1.15,2013-05-23 17:10:00,
2013-05-23 13:20:00,71.3,68.9,29.81,ENE,76,1.0,1.0,92,0.00,,,0.00,171,Wunderground v.1.15,2013-05-23 17:20:00,
2013-05-23 13:30:00,71.9,69.4,29.80,ESE,106,1.0,1.0,92,0.00,,,0.00,392,Wunderground v.1.15,2013-05-23 17:30:00,
2013-05-23 13:40:00,73.1,69.7,29.79,SE,132,1.0,2.0,89,0.00,,,0.00,415,Wunderground v.1.15,2013-05-23 17:40:00,
2013-05-23 13:50:00,74.2,70.4,29.79,SSE,157,1.0,1.0,88,0.00,,,0.00,283,Wunderground v.1.15,2013-05-23 17:50:00,
2013-05-23 14:00:00,74.4,70.3,29.79,SSE,165,1.0,1.0,87,0.00,,,0.00,199,Wunderground v.1.15,2013-05-23 18:00:00,
2013-05-23 14:10:00,74.3,69.8,29.79,SE,130,2.0,2.0,86,0.00,,,0.00,207,Wunderground v.1.15,2013-05-23 18:10:00,
2013-05-23 14:20:00,74.2,69.7,29.78,WNW,284,1.0,3.0,86,0.00,,,0.00,149,Wunderground v.1.15,2013-05-23 18:20:00,
2013-05-23 14:30:00,73.7,69.2,29.78,ESE,108,2.0,2.0,86,0.00,,,0.00,121,Wunderground v.1.15,2013-05-23 18:30:00,
2013-05-23 14:40:00,73.4,69.3,29.78,ESE,111,2.0,2.0,87,0.00,,,0.00,134,Wunderground v.1.15,2013-05-23 18:40:00,
2013-05-23 14:50:00,73.3,68.9,29.78,South,185,2.0,2.0,86,0.00,,,0.00,202,Wunderground v.1.15,2013-05-23 18:50:00,
2013-05-23 15:00:00,73.2,69.4,29.78,SSW,201,2.0,2.0,88,0.00,,,0.00,160,Wunderground v.1.15,2013-05-23 19:00:00,
2013-05-23 15:10:00,73.2,69.4,29.78,East,101,1.0,2.0,88,0.00,,,0.00,272,Wunderground v.1.15,2013-05-23 19:10:00,
2013-05-23 15:20:00,73.5,69.4,29.77,West,267,2.0,2.0,87,0.00,,,0.00,285,Wunderground v.1.15,2013-05-23 19:20:00,
2013-05-23 15:30:00,73.9,69.1,29.77,ENE,58,3.0,3.0,85,0.00,,,0.00,281,Wunderground v.1.15,2013-05-23 19:30:00,
2013-05-23 15:40:00,73.8,69.3,29.77,South,169,2.0,2.0,86,0.00,,,0.00,176,Wunderground v.1.15,2013-05-23 19:40:00,
2013-05-23 15:50:00,73.3,69.2,29.77,ESE,118,2.0,2.0,87,0.00,,,0.00,84,Wunderground v.1.15,2013-05-23 19:50:00,
2013-05-23 16:00:00,72.6,68.8,29.77,SSW,206,1.0,1.0,88,0.00,,,0.00,47,Wunderground v.1.15,2013-05-23 20:00:00,
2013-05-23 16:10:00,71.7,68.6,29.77,SSE,158,1.0,1.0,90,0.11,,,0.02,32,Wunderground v.1.15,2013-05-23 20:10:00,
2013-05-23 16:20:00,70.9,68.8,29.77,SE,139,1.0,3.0,93,0.15,,,0.04,25,Wunderground v.1.15,2013-05-23 20:20:00,
2013-05-23 16:30:00,70.3,68.5,29.77,SSE,150,1.0,2.0,94,0.12,,,0.06,37,Wunderground v.1.15,2013-05-23 20:30:00,
2013-05-23 16:40:00,69.9,68.4,29.77,SSE,155,1.0,1.0,95,0.08,,,0.08,47,Wunderground v.1.15,2013-05-23 20:40:00,
2013-05-23 16:50:00,69.6,68.4,29.77,SSW,192,1.0,1.0,96,0.05,,,0.08,42,Wunderground v.1.15,2013-05-23 20:50:00,
2013-05-23 17:00:00,69.5,68.6,29.77,SW,226,1.0,1.0,97,0.00,,,0.08,32,Wunderground v.1.15,2013-05-23 21:00:00,
2013-05-23 17:10:00,69.4,68.5,29.76,SE,129,1.0,1.0,97,0.00,,,0.09,44,Wunderground v.1.15,2013-05-23 21:10:00,
2013-05-23 17:20:00,69.3,68.4,29.76,ESE,104,1.0,1.0,97,0.00,,,0.09,46,Wunderground v.1.15,2013-05-23 21:20:00,
2013-05-23 17:30:00,69.2,68.3,29.76,SSE,148,1.0,1.0,97,0.00,,,0.09,28,Wunderground v.1.15,2013-05-23 21:30:00,
2013-05-23 17:40:00,69.1,68.2,29.76,East,80,1.0,1.0,97,0.00,,,0.10,25,Wunderground v.1.15,2013-05-23 21:40:00,
2013-05-23 17:50:00,69.0,68.4,29.75,SSW,208,1.0,1.0,98,0.00,,,0.10,14,Wunderground v.1.15,2013-05-23 21:50:00,
2013-05-23 18:00:00,68.9,68.0,29.75,NNW,348,1.0,3.0,97,0.00,,,0.10,19,Wunderground v.1.15,2013-05-23 22:00:00,
2013-05-23 18:10:00,68.7,67.8,29.75,ESE,109,1.0,1.0,97,0.00,,,0.10,16,Wunderground v.1.15,2013-05-23 22:10:00,
2013-05-23 18:20:00,68.5,67.6,29.75,ENE,60,2.0,4.0,97,0.00,,,0.10,16,Wunderground v.1.15,2013-05-23 22:20:00,
2013-05-23 18:30:00,68.2,67.3,29.76,SE,146,1.0,1.0,97,0.00,,,0.10,11,Wunderground v.1.15,2013-05-23 22:30:00,
2013-05-23 18:40:00,67.9,67.0,29.75,South,189,1.0,1.0,97,0.00,,,0.11,26,Wunderground v.1.15,2013-05-23 22:40:00,
2013-05-23 18:50:00,67.8,67.2,29.76,South,173,2.0,2.0,98,0.00,,,0.11,26,Wunderground v.1.15,2013-05-23 22:50:00,
2013-05-23 19:00:00,67.7,67.1,29.75,SW,227,2.0,3.0,98,0.00,,,0.11,33,Wunderground v.1.15,2013-05-23 23:00:00,
2013-05-23 19:10:00,67.7,67.1,29.75,SSE,159,2.0,2.0,98,0.00,,,0.11,37,Wunderground v.1.15,2013-05-23 23:10:00,
2013-05-23 19:20:00,67.8,67.2,29.75,SE,133,1.0,2.0,98,0.00,,,0.11,63,Wunderground v.1.15,2013-05-23 23:20:00,
2013-05-23 19:30:00,67.9,67.3,29.76,NNW,342,1.0,3.0,98,0.00,,,0.11,21,Wunderground v.1.15,2013-05-23 23:30:00,
2013-05-23 19:40:00,67.8,67.2,29.76,SSW,205,1.0,1.0,98,0.00,,,0.11,16,Wunderground v.1.15,2013-05-23 23:40:00,
2013-05-23 19:50:00,67.7,67.1,29.75,East,89,1.0,1.0,98,0.00,,,0.11,12,Wunderground v.1.15,2013-05-23 23:50:00,
2013-05-23 20:00:00,67.6,67.0,29.75,ESE,115,1.0,1.0,98,0.00,,,0.11,5,Wunderground v.1.15,2013-05-24 00:00:00,
2013-05-23 20:10:00,67.6,67.0,29.74,South,185,1.0,1.0,98,0.00,,,0.11,0,Wunderground v.1.15,2013-05-24 00:10:00,
2013-05-23 20:20:00,67.5,66.9,29.74,ESE,121,1.0,1.0,98,0.00,,,0.11,0,Wunderground v.1.15,2013-05-24 00:20:00,
2013-05-23 20:30:00,67.4,66.8,29.74,West,259,2.0,2.0,98,0.00,,,0.11,0,Wunderground v.1.15,2013-05-24 00:30:00,
2013-05-23 20:40:00,67.4,66.8,29.74,ESE,121,2.0,3.0,98,0.00,,,0.11,0,Wunderground v.1.15,2013-05-24 00:40:00,
2013-05-23 20:50:00,67.3,66.7,29.75,SSE,163,2.0,2.0,98,0.00,,,0.11,0,Wunderground v.1.15,2013-05-24 00:50:00,
2013-05-23 21:00:00,67.2,66.6,29.75,SE,146,1.0,1.0,98,0.00,,,0.11,0,Wunderground v.1.15,2013-05-24 01:00:00,
2013-05-23 21:10:00,67.2,66.6,29.74,NW,317,1.0,2.0,98,0.00,,,0.11,0,Wunderground v.1.15,2013-05-24 01:10:00,
2013-05-23 21:20:00,67.0,66.1,29.75,NNE,24,1.0,1.0,97,0.00,,,0.11,0,Wunderground v.1.15,2013-05-24 01:20:00,
2013-05-23 21:30:00,66.7,65.8,29.76,NE,47,1.0,1.0,97,0.00,,,0.11,0,Wunderground v.1.15,2013-05-24 01:30:00,
2013-05-23 21:40:00,66.6,66.0,29.76,NE,48,0.0,0.0,98,0.00,,,0.11,0,Wunderground v.1.15,2013-05-24 01:40:00,
2013-05-23 21:50:00,66.5,65.9,29.76,NE,50,0.0,0.0,98,0.00,,,0.11,0,Wunderground v.1.15,2013-05-24 01:50:00,
2013-05-23 22:00:00,66.4,65.8,29.75,SSW,192,0.0,0.0,98,0.00,,,0.11,0,Wunderground v.1.15,2013-05-24 02:00:00,
2013-05-23 22:10:00,66.3,65.7,29.75,ESE,121,0.0,0.0,98,0.00,,,0.11,0,Wunderground v.1.15,2013-05-24 02:10:00,
2013-05-23 22:20:00,66.3,65.7,29.75,SE,130,0.0,0.0,98,0.00,,,0.11,0,Wunderground v.1.15,2013-05-24 02:20:00,
2013-05-23 22:30:00,66.2,65.6,29.75,NNE,22,0.0,0.0,98,0.00,,,0.11,0,Wunderground v.1.15,2013-05-24 02:30:00,
2013-05-23 22:40:00,66.1,65.5,29.75,NNE,22,0.0,0.0,98,0.00,,,0.11,0,Wunderground v.1.15,2013-05-24 02:40:00,
2013-05-23 22:50:00,66.1,65.5,29.75,NNE,22,0.0,0.0,98,0.00,,,0.11,0,Wunderground v.1.15,2013-05-24 02:50:00,
2013-05-23 23:01:00,66.0,65.4,29.74,ESE,122,0.0,0.0,98,0.00,,,0.11,0,Wunderground v.1.15,2013-05-24 03:01:00,
2013-05-23 23:10:00,66.0,65.4,29.74,ESE,122,0.0,0.0,98,0.33,,,0.14,0,Wunderground v.1.15,2013-05-24 03:10:00,
2013-05-23 23:20:00,65.9,65.3,29.74,NE,53,0.0,0.0,98,0.12,,,0.17,0,Wunderground v.1.15,2013-05-24 03:20:00,
2013-05-23 23:30:00,65.8,65.2,29.74,NE,53,0.0,0.0,98,0.05,,,0.17,0,Wunderground v.1.15,2013-05-24 03:30:00,
2013-05-23 23:40:00,65.6,65.0,29.73,NE,53,0.0,0.0,98,0.00,,,0.17,0,Wunderground v.1.15,2013-05-24 03:40:00,
2013-05-23 23:50:00,65.6,65.0,29.73,NE,53,0.0,0.0,98,0.00,,,0.17,0,Wunderground v.1.15,2013-05-24 03:50:00,